KB8DIV Weather Reports


time (UTC)temp
F
wind
direction
speed
knots
gust
knots
rain 1hr
in
rain 24hr
in
rain mn
in
humidity
%
barometer
mb
20260507103754 39 274 2.6 4.3 0.00 0.00 0.00 81 1014.7
20260507103034 39 288 2.6 4.3 0.00 0.00 0.00 81 1014.6
20260507102528 39 276 2.6 3.5 0.00 0.00 0.00 82 1014.7
20260507102022 38 269 2.6 3.5 0.00 0.00 0.00 83 1014.7
20260507101516 39 268 1.7 3.5 0.00 0.00 0.00 83 1014.6
20260507101010 39 258 1.7 3.5 0.00 0.00 0.00 83 1014.6
20260507100732 39 253 1.7 3.5 0.00 0.00 0.00 82 1014.7
20260507095958 39 260 1.7 3.5 0.00 0.00 0.00 82 1014.6
20260507095941 39 264 1.7 2.6 0.00 0.00 0.00 82 1014.6
20260507094946 40 263 1.7 3.5 0.00 0.00 0.00 81 1014.6
20260507094705 40 262 1.7 3.5 0.00 0.00 0.00 80 1014.6
20260507093934 40 272 2.6 3.5 0.00 0.00 0.00 79 1014.6
20260507093652 41 266 2.6 4.3 0.00 0.00 0.00 78 1014.6
20260507092922 41 288 2.6 6.1 0.00 0.00 0.00 78 1014.6
20260507092636 41 299 3.5 6.1 0.00 0.00 0.00 77 1014.6
20260507091910 42 284 3.5 6.1 0.00 0.00 0.00 77 1014.6
20260507091405 42 293 3.5 5.2 0.00 0.00 0.00 78 1014.5
20260507090858 42 311 3.5 5.2 0.00 0.00 0.00 78 1014.4
20260507090352 42 300 3.5 5.2 0.00 0.00 0.00 78 1014.5
20260507085846 42 294 4.3 5.2 0.00 0.00 0.00 78 1014.5
20260507085602 42 294 4.3 6.1 0.00 0.00 0.00 77 1014.5
20260507084834 42 289 4.3 6.1 0.00 0.00 0.00 77 1014.5
20260507084328 42 288 4.3 6.1 0.00 0.00 0.00 77 1014.4
20260507084044 42 287 4.3 6.1 0.00 0.00 0.00 77 1014.3
20260507083317 42 293 4.3 6.1 0.00 0.00 0.00 78 1014.3
20260507082810 42 297 4.3 7.0 0.00 0.00 0.00 78 1014.3
20260507082306 43 297 3.5 7.0 0.00 0.00 0.00 77 1014.3
20260507081758 43 295 3.5 5.2 0.00 0.00 0.00 77 1014.1
20260507081252 43 293 3.5 7.0 0.00 0.00 0.00 77 1014.3
20260507080746 43 283 3.5 7.0 0.00 0.00 0.00 78 1014.3
20260507080240 43 293 3.5 5.2 0.00 0.00 0.00 78 1014.3
20260507075734 43 280 4.3 5.2 0.00 0.00 0.00 78 1014.3
20260507075228 43 289 3.5 5.2 0.00 0.00 0.00 77 1014.4
20260507074721 43 304 3.5 5.2 0.00 0.01 0.00 77 1014.3
20260507074216 43 301 3.5 5.2 0.00 0.01 0.00 77 1014.4
20260507073711 43 299 4.3 6.1 0.00 0.01 0.00 78 1014.3
20260507073204 44 301 4.3 6.1 0.00 0.02 0.00 77 1014.3
20260507072658 44 290 4.3 6.1 0.00 0.02 0.00 77 1014.4
20260507072153 44 291 4.3 6.1 0.00 0.02 0.00 77 1014.4
20260507072138 44 291 4.3 6.1 0.00 0.02 0.00 77 1014.4
20260507071358 44 290 3.5 6.1 0.00 0.02 0.00 76 1014.4
20260507070634 44 284 3.5 5.2 0.00 0.02 0.00 76 1014.3
20260507070128 44 300 3.5 6.1 0.00 0.02 0.00 76 1014.3
20260507065623 44 299 4.3 6.1 0.00 0.02 0.00 76 1014.4
20260507065335 44 301 3.5 6.1 0.00 0.02 0.00 76 1014.5
20260507064610 44 279 3.5 6.1 0.00 0.02 0.00 76 1014.5
20260507064104 44 278 3.5 6.1 0.00 0.02 0.00 76 1014.4
20260507063558 44 281 3.5 5.2 0.00 0.02 0.00 76 1014.5
20260507063313 44 281 3.5 5.2 0.00 0.02 0.00 76 1014.5
20260507062808 45 278 3.5 5.2 0.00 0.02 0.00 76 1014.6
20260507062305 45 269 3.5 5.2 0.00 0.03 0.00 76 1014.7
20260507061534 45 288 3.5 5.2 0.00 0.03 0.00 77 1014.7
20260507061028 45 274 3.5 5.2 0.00 0.03 0.00 77 1014.6
20260507060522 45 285 3.5 5.2 0.00 0.03 0.00 77 1014.6
20260507060017 45 295 2.6 4.3 0.00 0.04 0.00 78 1014.5
20260507055517 45 281 2.6 4.3 0.00 0.04 0.00 78 1014.6
20260507055019 45 280 2.6 4.3 0.00 0.05 0.00 78 1014.6
20260507054518 45 292 2.6 4.3 0.00 0.05 0.00 78 1014.6
20260507054018 44 271 2.6 5.2 0.00 0.05 0.00 78 1014.5
20260507053518 44 278 2.6 5.2 0.00 0.06 0.00 79 1014.6
20260507053017 44 277 2.6 4.3 0.00 0.06 0.00 79 1014.5
20260507052745 44 278 1.7 3.5 0.00 0.06 0.00 79 1014.6
20260507052018 45 274 1.7 3.5 0.00 0.06 0.00 78 1014.6
20260507051518 45 258 2.6 4.3 0.00 0.06 0.00 78 1014.6
20260507051018 45 256 2.6 4.3 0.00 0.06 0.00 77 1014.6
20260507050516 45 263 2.6 4.3 0.00 0.06 0.00 76 1014.5
20260507050019 46 274 2.6 4.3 0.00 0.06 0.00 76 1014.5
20260507045518 46 281 3.5 5.2 0.00 0.06 0.00 75 1014.5
20260507045018 46 285 3.5 5.2 0.00 0.07 0.00 75 1014.5
20260507044739 46 278 3.5 4.3 0.00 0.07 0.00 75 1014.5
20260507044016 46 279 3.5 5.2 0.00 0.08 0.00 75 1014.5
20260507043514 46 283 3.5 5.2 0.00 0.08 0.00 76 1014.5
20260507043014 46 278 3.5 5.2 0.00 0.09 0.00 76 1014.5
20260507042736 46 268 3.5 5.2 0.00 0.10 0.00 76 1014.5
20260507042015 46 284 3.5 5.2 0.00 0.10 0.00 77 1014.4
20260507041740 46 283 2.6 5.2 0.00 0.10 0.00 77 1014.5
20260507041235 46 279 2.6 5.2 0.00 0.10 0.00 78 1014.4
20260507040515 45 280 1.7 5.2 0.00 0.10 0.00 79 1014.4
20260507040241 45 271 1.7 2.6 0.00 0.10 0.00 79 1014.4
20260507035516 45 274 1.7 2.6 0.00 0.10 0.10 79 1014.5
20260507035017 46 268 1.7 2.6 0.00 0.10 0.10 79 1014.5
20260507034736 46 269 1.7 2.6 0.00 0.10 0.10 79 1014.5
20260507034015 46 278 1.7 2.6 0.00 0.10 0.10 79 1014.5
20260507033515 46 270 1.7 2.6 0.00 0.11 0.10 80 1014.5
20260507033016 46 269 1.7 2.6 0.00 0.12 0.10 80 1014.5
20260507032737 46 272 1.7 2.6 0.00 0.13 0.10 80 1014.5
20260507032015 46 269 1.7 1.7 0.00 0.14 0.10 81 1014.5
20260507031512 46 271 0.9 1.7 0.00 0.14 0.10 80 1014.5
20260507031014 47 259 0.9 1.7 0.00 0.14 0.10 79 1014.5
20260507030512 47 267 0.9 1.7 0.00 0.15 0.10 79 1014.5
20260507030012 47 262 0.9 1.7 0.00 0.15 0.10 79 1014.5
20260507025511 47 262 0.9 1.7 0.00 0.15 0.10 78 1014.5
20260507025234 47 259 0.9 1.7 0.00 0.15 0.10 78 1014.5
20260507024506 47 262 1.7 1.7 0.00 0.16 0.10 78 1014.6
20260507023959 47 259 0.9 1.7 0.00 0.16 0.10 78 1014.6
20260507023454 47 252 0.9 1.7 0.00 0.16 0.10 78 1014.6
20260507022953 48 255 0.9 2.6 0.00 0.16 0.10 77 1014.5
20260507022453 48 273 1.7 3.5 0.00 0.17 0.10 76 1014.5
20260507021953 48 278 1.7 3.5 0.00 0.17 0.10 77 1014.5
20260507021718 48 269 0.9 2.6 0.00 0.17 0.10 77 1014.5
20260507020953 48 248 1.7 3.5 0.00 0.17 0.10 78 1014.6
20260507020717 48 270 2.6 3.5 0.00 0.17 0.10 77 1014.5
20260507015952 48 274 2.6 4.3 0.00 0.18 0.10 76 1014.5
20260507015454 48 294 1.7 4.3 0.00 0.18 0.10 79 1014.5
20260507014954 48 274 0.9 4.3 0.00 0.19 0.10 82 1014.4
20260507014449 48 279 0.9 1.7 0.00 0.20 0.10 80 1014.4
20260507014151 49 258 1.7 2.6 0.00 0.22 0.10 78 1014.1
20260507013949 49 264 1.7 2.6 0.00 0.21 0.10 79 1014.3
20260507012949 49 236 1.7 1.7 0.00 0.23 0.10 77 1014.0
20260507012713 50 257 0.9 1.7 0.00 0.24 0.10 77 1014.0
20260507011949 50 255 0.9 1.7 0.00 0.25 0.10 75 1013.9
20260507011449 50 245 0.9 1.7 0.00 0.25 0.10 74 1013.8
20260507010950 50 253 0.9 1.7 0.00 0.25 0.10 74 1013.8
20260507010451 50 250 0.9 1.7 0.00 0.25 0.10 75 1013.7
20260507005945 50 251 0.9 1.7 0.00 0.26 0.10 74 1013.7
20260507005445 51 252 0.9 2.6 0.00 0.27 0.10 73 1013.8
20260507004946 51 275 1.7 2.6 0.00 0.28 0.10 72 1013.7
20260507004446 51 270 1.7 2.6 0.00 0.29 0.10 72 1013.6
20260507003946 51 283 1.7 2.6 0.00 0.32 0.10 71 1013.5
20260507003444 52 279 1.7 3.5 0.00 0.33 0.10 70 1013.5
20260507002943 52 274 1.7 4.3 0.00 0.35 0.10 69 1013.5
20260507002444 52 285 2.6 4.3 0.00 0.37 0.10 69 1013.4
20260507001944 52 259 2.6 4.3 0.00 0.39 0.10 69 1013.5
20260507001445 52 266 2.6 4.3 0.00 0.41 0.10 68 1013.5
20260507000938 53 293 2.6 4.3 0.00 0.42 0.10 69 1013.4
20260507000442 53 288 3.5 5.2 0.00 0.43 0.10 70 1013.4
20260506235932 53 299 2.6 5.2 0.00 0.43 0.10 67 1013.3
20260506235654 53 288 2.6 4.3 0.00 0.44 0.10 67 1013.3
20260506235148 53 289 2.6 5.2 0.00 0.45 0.10 67 1013.3
20260506234419 53 284 3.5 5.2 0.00 0.45 0.10 66 1013.3
20260506234143 53 300 3.5 5.2 0.00 0.46 0.10 67 1013.3
20260506233419 53 291 3.5 6.1 0.00 0.46 0.10 68 1013.4
20260506232919 53 289 4.3 8.7 0.00 0.47 0.10 67 1013.4
20260506232419 53 295 4.3 8.7 0.00 0.47 0.10 66 1013.3
20260506231918 53 299 3.5 7.0 0.00 0.48 0.10 64 1013.3
20260506231415 54 319 3.5 5.2 0.00 0.48 0.10 63 1013.4
20260506230914 54 288 4.3 7.8 0.00 0.49 0.10 64 1013.4
20260506230414 54 319 4.3 7.8 0.00 0.49 0.10 62 1013.4
20260506225914 54 276 4.3 7.0 0.00 0.50 0.10 62 1013.4
20260506225413 54 278 4.3 7.0 0.00 0.50 0.10 59 1013.4
20260506224912 54 316 2.6 6.1 0.00 0.51 0.10 62 1013.5
20260506224412 53 311 3.5 6.1 0.00 0.51 0.10 60 1013.6
20260506223911 53 338 3.5 6.1 0.00 0.51 0.10 60 1013.7
20260506223405 53 317 3.5 6.1 0.00 0.51 0.10 59 1013.8
20260506222859 53 307 3.5 7.0 0.00 0.51 0.10 61 1013.8
20260506222353 53 321 4.3 8.7 0.00 0.51 0.10 61 1013.9
20260506221847 53 306 5.2 8.7 0.00 0.51 0.10 58 1013.9
20260506221341 53 301 5.2 7.8 0.00 0.52 0.10 60 1013.9
20260506220835 53 300 5.2 9.6 0.00 0.52 0.10 58 1013.8
20260506220328 53 300 5.2 9.6 0.00 0.52 0.10 57 1013.7
20260506215823 53 315 4.3 6.1 0.00 0.52 0.10 59 1013.6
20260506215317 53 319 4.3 7.0 0.00 0.53 0.10 59 1013.6
20260506214811 53 316 4.3 7.8 0.00 0.53 0.10 58 1013.5
20260506214305 54 297 3.5 7.8 0.00 0.53 0.10 60 1013.4
20260506214020 53 283 4.3 7.8 0.00 0.53 0.10 60 1013.4
20260506213253 53 309 4.3 7.8 0.00 0.55 0.10 58 1013.5
20260506212747 53 283 4.3 7.8 0.00 0.56 0.10 56 1013.6
20260506212241 53 309 5.2 9.6 0.00 0.56 0.10 58 1013.5
20260506211735 53 295 6.1 9.6 0.00 0.57 0.10 60 1013.5
20260506211230 53 307 7.0 11.3 0.00 0.58 0.10 54 1013.3
20260506210946 53 304 6.1 11.3 0.00 0.61 0.10 57 1013.2
20260506210217 54 293 5.2 9.6 0.00 0.62 0.10 58 1013.1
20260506205942 54 312 4.3 7.8 0.00 0.63 0.10 59 1013.2
20260506205205 54 281 5.2 8.7 0.00 0.64 0.10 61 1013.2
20260506204659 54 293 6.1 10.4 0.00 0.65 0.10 58 1013.3
20260506204154 54 298 6.1 10.4 0.00 0.65 0.10 57 1013.3
20260506203647 54 295 5.2 9.6 0.00 0.65 0.10 56 1013.3
20260506203141 54 329 4.3 7.8 0.00 0.66 0.10 55 1013.3
20260506202634 54 290 5.2 8.7 0.00 0.66 0.10 53 1013.2
20260506202130 54 317 4.3 8.7 0.00 0.67 0.10 54 1013.3
20260506201623 54 299 3.5 7.8 0.00 0.67 0.10 59 1013.4
20260506201117 54 20 4.3 7.0 0.00 0.68 0.10 56 1013.3
20260506200612 54 297 5.2 8.7 0.00 0.69 0.10 55 1013.4
20260506200105 54 307 6.1 11.3 0.00 0.69 0.10 51 1013.4
20260506195820 54 292 6.1 11.3 0.00 0.70 0.10 56 1013.3
20260506195053 54 313 5.2 8.7 0.00 0.70 0.10 59 1013.3
20260506194547 54 297 5.2 9.6 0.00 0.71 0.10 58 1013.3
20260506194041 54 295 5.2 9.6 0.00 0.73 0.10 58 1013.3
20260506193535 54 293 4.3 7.8 0.00 0.74 0.10 59 1013.3
20260506193030 54 278 3.5 7.0 0.00 0.75 0.10 58 1013.3
20260506192523 54 302 2.6 5.2 0.00 0.77 0.10 58 1013.2
20260506192018 54 347 2.6 6.1 0.00 0.77 0.10 60 1013.3
20260506191739 53 328 3.5 6.1 0.00 0.78 0.10 60 1013.4
20260506191005 53 297 3.5 5.2 0.00 0.80 0.10 58 1013.4
20260506190500 53 319 3.5 5.2 0.00 0.81 0.10 58 1013.3
20260506185953 53 8 3.5 5.2 0.00 0.82 0.10 58 1013.3
20260506185450 54 340 2.6 5.2 0.00 0.83 0.10 60 1013.3
20260506185207 53 323 2.6 6.1 0.00 0.83 0.10 59 1013.4
20260506184939 53 304 4.3 7.0 0.00 0.83 0.10 58 1013.3
20260506183950 53 278 4.3 7.0 0.00 0.84 0.10 58 1013.4
20260506183450 53 283 3.5 6.1 0.00 0.84 0.10 58 1013.4
20260506182950 53 345 4.3 7.0 0.00 0.84 0.10 62 1013.4
20260506182449 53 292 4.3 7.0 0.00 0.84 0.10 60 1013.4
20260506181951 53 308 2.6 6.1 0.00 0.85 0.10 59 1013.4
20260506181721 53 310 3.5 5.2 0.00 0.87 0.10 59 1013.3
20260506180951 53 299 4.3 7.0 0.00 0.89 0.10 60 1013.3
20260506180448 53 283 3.5 7.0 0.00 0.92 0.10 61 1013.2
20260506175949 54 304 1.7 4.3 0.00 0.92 0.10 62 1013.1
20260506175447 53 344 1.7 4.3 0.00 0.92 0.10 63 1013.2
20260506174947 53 4 1.7 5.2 0.00 0.92 0.10 62 1013.3
20260506174446 53 0 3.5 7.0 0.00 0.92 0.10 64 1013.4
20260506173947 53 335 4.3 7.8 0.00 0.92 0.10 61 1013.6
20260506173442 53 323 3.5 7.8 0.00 0.92 0.10 61 1013.6
20260506172939 53 337 2.6 7.8 0.00 0.92 0.10 62 1013.5
20260506172439 53 0 2.6 7.8 0.00 0.92 0.10 63 1013.5
20260506171937 53 349 3.5 7.0 0.00 0.92 0.10 63 1013.4
20260506171439 53 326 3.5 7.0 0.00 0.92 0.10 63 1013.5
20260506170938 54 314 4.3 7.8 0.00 0.92 0.10 64 1013.4
20260506170437 54 315 5.2 10.4 0.00 0.92 0.10 63 1013.3
20260506165939 54 33 3.5 10.4 0.00 0.92 0.10 64 1013.1
20260506165439 54 355 2.6 7.0 0.00 0.92 0.10 62 1013.1
20260506165158 54 315 3.5 7.8 0.00 0.92 0.10 66 1013.1
20260506164438 53 342 4.3 8.7 0.00 0.92 0.10 64 1013.4
20260506163939 53 325 4.3 8.7 0.00 0.92 0.10 64 1013.5
20260506163439 53 320 4.3 7.0 0.00 0.92 0.10 64 1013.5
20260506162938 54 24 4.3 7.0 0.00 0.92 0.10 63 1013.5
20260506162437 54 308 4.3 8.7 0.00 0.92 0.10 64 1013.6
20260506162202 54 354 4.3 8.7 0.00 0.92 0.10 64 1013.5
20260506161927 53 336 4.3 8.7 0.00 0.92 0.10 66 1013.5
20260506160939 53 325 5.2 9.6 0.00 0.92 0.10 63 1013.2
20260506160437 53 316 3.5 9.6 0.00 0.92 0.10 67 1013.2
20260506160157 54 15 3.5 7.8 0.00 0.92 0.10 66 1013.2
20260506155438 54 353 5.2 10.4 0.00 0.92 0.10 67 1013.4
20260506154940 53 316 5.2 10.4 0.00 0.92 0.10 69 1013.0
20260506154434 53 304 5.2 10.4 0.00 0.92 0.10 65 1013.3
20260506153934 52 349 5.2 10.4 0.00 0.92 0.10 67 1013.2
20260506153434 53 307 4.3 9.6 0.00 0.92 0.10 69 1013.2
20260506152934 52 324 4.3 7.0 0.00 0.92 0.10 69 1013.2
20260506152435 52 321 4.3 8.7 0.00 0.92 0.10 69 1013.2
20260506151934 52 316 4.3 8.7 0.00 0.92 0.10 71 1013.2
20260506151434 52 329 3.5 7.8 0.00 0.92 0.10 69 1013.2
20260506150935 51 1 3.5 8.7 0.00 0.92 0.10 69 1013.2
20260506150436 51 339 4.3 8.7 0.00 0.92 0.10 70 1013.1
20260506145931 51 323 3.5 7.8 0.00 0.92 0.10 70 1012.9
20260506145903 51 335 2.6 7.8 0.00 0.92 0.10 70 1012.8
20260506145157 51 354 2.6 7.8 0.00 0.92 0.10 73 1012.8
20260506144429 51 8 2.6 7.8 0.00 0.92 0.10 72 1012.8
20260506143931 50 321 3.5 7.8 0.00 0.92 0.10 71 1012.7
20260506143431 50 325 3.5 7.0 0.00 0.92 0.10 74 1012.6
20260506142929 50 336 3.5 7.8 0.00 0.92 0.10 71 1012.5
20260506142429 50 333 4.3 7.8 0.00 0.92 0.10 71 1012.4
20260506141927 50 356 5.2 9.6 0.00 0.92 0.10 76 1012.5
20260506141645 49 333 4.3 9.6 0.00 0.92 0.10 76 1012.5
20260506140925 49 340 3.5 7.8 0.00 0.92 0.10 78 1012.6
20260506140426 49 330 4.3 7.8 0.00 0.92 0.10 77 1012.5
20260506135925 49 312 4.3 7.8 0.00 0.92 0.10 79 1012.4
20260506135418 49 301 4.3 8.7 0.00 0.92 0.10 77 1012.4
20260506134912 48 11 5.2 8.7 0.00 0.92 0.10 79 1012.5
20260506134410 48 18 4.3 7.0 0.00 0.92 0.10 81 1012.7
20260506133909 48 307 4.3 8.7 0.00 0.92 0.10 82 1012.7
20260506133409 48 319 4.3 8.7 0.00 0.92 0.10 82 1012.4
20260506132910 47 291 3.5 7.0 0.00 0.92 0.10 83 1012.4
20260506132409 47 302 3.5 7.0 0.00 0.92 0.10 84 1012.3
20260506131909 47 317 3.5 7.0 0.00 0.92 0.10 84 1012.2
20260506131635 46 321 3.5 7.0 0.00 0.92 0.10 85 1012.1
20260506130909 46 311 3.5 7.0 0.00 0.92 0.10 85 1012.1
20260506130409 46 306 3.5 5.2 0.00 0.92 0.10 88 1012.1
20260506130132 45 315 2.6 5.2 0.00 0.92 0.10 88 1012.1
20260506125630 45 287 2.6 5.2 0.00 0.92 0.10 87 1012.3
20260506124909 45 316 2.6 5.2 0.00 0.92 0.10 87 1012.1
20260506124408 45 326 2.6 5.2 0.00 0.92 0.10 89 1012.0
20260506123909 44 314 2.6 5.2 0.00 0.92 0.10 87 1011.9
20260506123409 44 315 3.5 5.2 0.00 0.92 0.10 89 1012.1
20260506123139 44 312 3.5 6.1 0.00 0.92 0.10 89 1012.2
20260506122402 44 295 2.6 6.1 0.00 0.92 0.10 90 1011.8
20260506121857 44 287 1.7 5.2 0.00 0.92 0.10 91 1011.7
20260506121350 44 316 1.7 4.3 0.00 0.92 0.10 92 1011.5
20260506120844 44 290 1.7 4.3 0.00 0.92 0.10 91 1011.3
20260506120337 44 320 1.7 3.5 0.00 0.92 0.10 92 1011.2
20260506115831 43 317 1.7 4.3 0.00 0.92 0.10 92 1011.1
20260506115546 43 317 2.6 4.3 0.00 0.92 0.10 92 1011.2
20260506114820 43 305 2.6 4.3 0.00 0.92 0.10 93 1011.1
20260506114314 43 323 1.7 4.3 0.00 0.92 0.10 93 1010.9
20260506113808 43 345 2.6 5.2 0.00 0.92 0.10 93 1010.9
20260506113302 43 314 2.6 5.2 0.00 0.92 0.10 93 1010.8
20260506112756 43 329 1.7 4.3 0.00 0.92 0.10 92 1010.6
20260506112251 43 323 1.7 3.5 0.00 0.92 0.10 92 1010.7
20260506112009 43 349 1.7 3.5 0.00 0.92 0.10 92 1010.5
20260506111237 43 337 1.7 3.5 0.00 0.92 0.10 92 1010.5
20260506110957 43 351 1.7 3.5 0.00 0.92 0.10 92 1010.2
20260506110226 43 339 1.7 3.5 0.00 0.92 0.10 92 1010.1
20260506105721 43 347 1.7 3.5 0.00 0.92 0.10 92 1010.0
20260506105442 43 340 2.6 4.3 0.00 0.92 0.10 92 1010.0
20260506104708 43 349 1.7 4.3 0.00 0.92 0.10 92 1009.9
20260506104201 43 346 1.7 3.5 0.00 0.92 0.10 92 1009.9
20260506104138 43 347 1.7 4.3 0.00 0.92 0.10 92 1010.0